Regional Weather Roundup
Issued by NWS

Home | Current Version | Previous Version | Graphics & Text | Print | Product List | Glossary On
Versions: 1 2 3 4 5 6 7 8 9 10 11 12 13 14 15 16 17 18 19 20 21 22 23 24 25 26 27 28 29 30 31 32 33 34 35 36 37 38 39 40 41 42 43 44 45 46 47 48 49 50
000
ASUS43 KTOP 290659
RWRKS

WEATHER ROUNDUP FOR KANSAS
NATIONAL WEATHER SERVICE GOODLAND KS
200 AM CDT TUE JUL 29 2014

NOTE:  "FAIR" INDICATES FEW OR NO CLOUDS BELOW 12,000 FEET WITH NO
SIGNIFICANT WEATHER AND/OR OBSTRUCTIONS TO VISIBILITY.

KSZ001>006-013>018-027>032-041>047-290800-
NORTHWEST KANSAS

CITY           SKY/WX    TMP DP  RH WIND       PRES   REMARKS
GOODLAND       CLOUDY    66  59  78 S6        30.25S
HAYS           MOCLDY    68  54  60 E10       30.21S
HILL CITY      MOCLDY    67  57  70 E8        30.22S
RUSSELL        MOCLDY    64  56  75 E7        30.20S
$$

KSZ061>065-074>080-084>089-290800-
SOUTHWEST KANSAS

CITY           SKY/WX    TMP DP  RH WIND       PRES   REMARKS
DODGE CITY     MOCLDY    65  56  72 S7        30.22F
ELKHART          N/A     66  60  81 S6          N/A
GARDEN CITY    PTCLDY    64  59  83 S7        30.23F
GREAT BEND     PTCLDY    68  57  68 SE8       30.19F
LIBERAL        MOCLDY    66  55  68 S6        30.26S
PRATT          PTCLDY    72  55  56 CALM      30.21F
$$

KSZ066>073-081>083-090>101-290800-
SOUTHEAST KANSAS

CITY           SKY/WX    TMP DP  RH WIND       PRES   REMARKS
CHANUTE        PTCLDY    67  58  72 NE7       30.17F
COFFEYVILLE    CLEAR     64  60  87 CALM      30.15F
HUTCHINSON     PTCLDY    65  56  72 E5        30.19F
NEWTON         MOCLDY    64  52  63 E3        30.22F
PARSONS        PTCLDY    66  58  75 NE3       30.17F
WICHITA INTL   MOCLDY    71  55  56 E6        30.18S
WICHITA JABRA  PTCLDY    65  57  75 E3        30.18F
WINFIELD       PTCLDY    71  57  61 E6        30.18F
$$

KSZ007>012-019>026-033>040-048>060-102>105-290800-
NORTHEAST KANSAS

CITY           SKY/WX    TMP DP  RH WIND       PRES   REMARKS
CONCORDIA      CLOUDY    67  57  70 E3        30.21S
EMPORIA        PTCLDY    64  58  80 CALM      30.18F
LAWRENCE       CLEAR     58  55  90 CALM      30.18S
MANHATTAN      PTCLDY    65  57  75 CALM      30.19F
OLATHE IND     CLEAR     62  57  83 CALM      30.19S
OLATHE EXE     CLEAR     66  59  78 CALM      30.17F
SALINA         MOCLDY    71  56  58 E6        30.20S
TOPEKA BILLARD CLEAR     61  56  83 CALM      30.18F
TOPEKA FORBES  CLEAR     60  55  83 CALM      30.18F
$$


USA.gov is the U.S. government's official web portal to all federal, state and local government web resources and services.